User: anonymous   Login
Location: Lake Runnemede Observatory
(43.4843°N, 72.3851°W)
Time: 02:54:52
(UTC-04:00)
Language:

SPOT 5 - Orbit

View from above orbital plane
View from above orbital plane
View from above satellite
View from above satellite

Ground track
Ground track

The orbit data is extracted from the following two-line orbital elements,

1 27421U 02021A   14304.83751596  .00000171  00000-0  10000-3 0   823
2 27421 098.5444 003.5201 0001416 083.1968 048.2011 14.20120153647710
Epoch (UTC): 31 October 2014 20:06:01
Eccentricity: 0.0001416
inclination: 98.5444°
perigee height: 824 km
apogee height: 826 km
right ascension of ascending node: 3.5201°
argument of perigee: 83.1968°
revolutions per day: 14.20120153
mean anomaly at epoch: 48.2011°
orbit number at epoch: 64771

The dashed part of the orbit path shows where the satellite is in the earth's shadow,  

DLR